#timestamp,LO_Frequency,Hit,StdDev 
1629417615.1,286046998.4,N
1629417616.0,286046998.4,N
1629417635.8,286046998.8,N
1629417655.7,286047001.2,N
1629417675.5,286046998.1,N
1629417695.3,286046998.1,N
1629417715.2,286046998.4,N
1629417735.0,286046998.1,N
1629417735.9,286046998.1,N
1629417755.8,286047000.0,N
1629417775.6,286047000.5,N
1629417795.4,286047000.9,N
1629417815.3,286047002.8,N
1629417835.1,286046999.8,N
1629417855.8,286047001.0,N
1629417875.7,286047002.7,N
1629417895.5,286047002.4,N
1629417915.4,286047002.6,N
1629417935.2,286047004.4,N
1629417955.0,286047001.3,N
1629417955.9,286047001.3,N
1629417975.8,286047001.4,N
1629417995.6,286047002.1,N
1629418015.4,286047001.9,N
1629418035.3,286047001.9,N
1629418055.1,286047002.6,N
1629418075.9,286047001.6,N
1629418095.7,286047002.4,N
1629418115.5,286047002.8,N
1629418135.4,286047000.1,N
1629418155.2,286046999.9,N
1629418175.1,286047002.8,N
1629418176.0,286047002.8,N
1629418195.8,286046999.8,N
1629418215.6,286047000.2,N
1629418235.5,286047000.1,N
1629418255.3,286047001.8,N
1629418275.1,286047001.4,N
1629418295.9,286047002.1,N
1629418315.7,286047001.8,N
1629418335.5,286047002.4,N
1629418355.4,286047002.2,N
1629418375.2,286047001.6,N
1629418395.1,286047002.1,N
1629418396.0,286047002.1,N
1629418415.8,286047004.0,Y
1629418435.6,286047002.0,P
1629418455.5,286047002.8,P
1629418475.3,286047001.6,P
1629418495.2,286047001.7,Y
1629418515.9,286047000.2,P
1629418535.7,286046999.7,N
1629418555.6,286047002.8,N
1629418575.4,286047002.8,N
1629418595.2,286047000.9,N
1629418615.1,286046998.5,N
1629418616.0,286046998.5,N
1629418635.8,286046999.1,N
1629418655.7,286046999.1,N
1629418675.5,286046999.1,N
1629418695.3,286046998.3,N
1629418715.2,286047000.7,N
1629418735.0,286047001.2,N
1629418735.9,286047001.2,N
1629418755.7,286047000.3,N
1629418775.6,286047001.1,N
1629418795.4,286047000.4,N
1629418815.3,286047000.0,N
1629418835.1,286047000.5,N
1629418836.0,286047000.5,N
1629418855.8,286047000.6,N
1629418875.7,286047000.7,N
1629418895.5,286046998.8,N
1629418915.3,286047001.0,N
1629418935.2,286047001.0,N
1629418955.0,286047001.1,N
1629418955.9,286047001.1,N
1629418975.8,286047000.6,N
1629418995.6,286047001.2,N
1629419015.4,286046998.1,N
1629419035.3,286046998.2,N
1629419055.1,286046998.8,N
1629419075.9,286047000.4,N
1629419095.7,286047000.9,N
1629419115.5,286046999.9,N
1629419135.4,286047000.3,N
1629419155.2,286047000.6,N
1629419175.0,286047001.0,N
1629419175.9,286047001.0,N
1629419195.8,286047000.0,N
1629419215.6,286047002.3,N
1629419235.5,286047002.3,N
1629419255.3,286047001.8,N
1629419275.1,286047001.9,N
1629419295.9,286046999.8,N
1629419315.7,286047000.6,N
1629419335.6,286047000.4,N
1629419355.4,286047000.1,N
1629419375.2,286046999.7,N
1629419395.1,286046999.7,N
1629419396.0,286046999.7,N
1629419415.8,286047002.7,N
1629419435.7,286047000.3,N
1629419455.9,286047000.2,N
1629419475.7,286047002.2,N
1629419495.5,286047002.5,N
1629419515.4,286047002.5,N
1629419535.2,286047002.7,N
1629419555.1,286047002.7,N
1629419556.0,286047002.7,N
1629419575.8,286047002.4,N
1629419595.6,286047002.8,N
1629419615.5,286047000.8,N
1629419635.3,286047000.5,N
1629419655.1,286047000.3,N
1629419675.9,286046998.9,N
1629419695.7,286047000.8,N
1629419715.6,286047002.7,N
1629419735.4,286047000.3,N
1629419755.2,286047002.4,N
1629419775.1,286046999.8,N
1629419776.0,286046999.8,N
1629419795.8,286047000.4,N
1629419815.7,286047000.5,N
1629419835.5,286047000.6,N
1629419855.3,286047000.4,N
1629419875.2,286047001.2,N
1629419895.0,286046999.9,N
1629419895.9,286046999.9,N
1629419915.8,286047002.8,N
1629419935.6,286046999.8,N
1629419955.4,286047002.8,N
1629419975.3,286047002.4,N
1629419995.1,286046999.9,N
1629420015.8,286047000.3,N
1629420035.7,286047001.1,N
1629420055.5,286046998.3,N
1629420075.4,286046998.2,N
1629420095.2,286046998.3,N
1629420115.0,286046999.8,N
1629420115.9,286046999.8,N
1629420135.8,286047002.0,N
1629420155.6,286047003.6,N
1629420175.5,286047003.0,N
1629420195.3,286047006.0,Y
1629420215.1,286047005.6,P
1629420235.9,286047005.8,N
1629420255.7,286047005.1,N
1629420275.6,286047007.5,Y
1629420295.4,286047001.3,P
1629420315.2,286047004.4,N
1629420335.1,286047001.3,N
1629420336.0,286047001.3,N
1629420355.8,286047001.6,N
1629420375.6,286047000.2,N
1629420395.5,286047001.6,N
1629420415.3,286047000.2,N
1629420435.1,286047002.0,N
1629420455.9,286047002.7,N
1629420475.7,286047002.3,N
1629420495.6,286047000.1,N
1629420515.4,286047002.5,N
1629420535.2,286047001.9,N
1629420555.1,286047002.0,N
1629420556.0,286047002.0,N
1629420575.8,286046999.7,N
1629420595.7,286047004.0,Y
1629420615.5,286046999.7,P
1629420635.3,286047000.7,N
1629420655.2,286046999.8,N
1629420675.0,286047000.2,N
1629420675.9,286047000.2,N
1629420695.8,286047002.7,Y
1629420715.6,286046999.7,P
1629420735.4,286047002.3,P
1629420755.3,286047000.9,N
1629420775.1,286046998.8,N
1629420795.8,286046999.1,N
1629420815.7,286046999.1,N
1629420835.5,286046997.2,N
1629420855.4,286046997.4,N
1629420875.2,286046997.8,N
1629420895.0,286046997.8,N
1629420895.9,286046997.8,N
1629420915.8,286046998.0,N
1629420935.6,286046995.7,N
1629420955.4,286046996.1,N
1629420975.3,286046996.1,N
1629420995.1,286046993.8,Y
1629421015.9,286046995.8,P
1629421035.7,286046996.1,P
1629421055.5,286046993.3,P
1629421075.4,286046993.6,Y
1629421095.2,286046999.5,P
1629421115.1,286046997.1,N
1629421116.0,286046997.1,N
1629421135.8,286046997.8,N
1629421155.6,286046997.6,N
1629421175.5,286046998.0,N
1629421195.3,286046997.3,N
